Location: ???????
(55.3754°N, 39.3545°E)
Time: 07:20:22
(UTC+00:00)

COSMOS 2455 - Pass Details

Date: 14 April 2026
Orbit: 901 x 907 km, 67.1° (Epoch: 12 May)

Event Time Altitude Azimuth Distance (km) Brightness Sun altitude
Rises 19:17:28 0° 314° (NW) 3,545 7.4 -19.9°
Reaches altitude 10° 19:20:05 10° 320° (NW) 2,602 6.4 -20.1°
Maximum altitude 19:25:56 50° 35° (NE) 1,149 3.5 -20.6°
Enters shadow 19:29:23 24° 99° (E) 1,789 4.0 -20.8°
